User: anonymous   Login
Location: Aressy
(43.2833°N, 0.3167°W)
Time: 00:10:03
(UTC+00:00)
Language:

Meteor 2-1 Rocket - Orbit

View from above orbital plane
View from above orbital plane
View from above satellite
View from above satellite

Ground track
Ground track

The orbit data is extracted from the following two-line orbital elements,

1  8027U 75064B   21110.62060407  .00000151  00000-0  81598-4 0  9991
2  8027  81.2942 143.9211 0056014 267.4454  92.0302 14.07356512349875
Epoch (UTC): 20 April 2021 14:53:40
Eccentricity: 0.0056014
inclination: 81.2942°
perigee height: 828 km
apogee height: 909 km
right ascension of ascending node: 143.9211°
argument of perigee: 267.4454°
revolutions per day: 14.07356512
mean anomaly at epoch: 92.0302°
orbit number at epoch: 34987

The dashed part of the orbit path shows where the satellite is in the earth's shadow,  

DLR